FLOCK 3P-33 (41990 NORAD) Tracking and Keplerian Element Data

This shows tracking and keplerian element data for the satellite.

Feedback or suggestion? Click here.




ElementValue
Catalog41990
NameFLOCK 3P-33
Epoch Orbit32864
Epoch Day14.15679634
Epoch Year2023
RAAN81.3859
Inclination97.2502
Eccentricity0.0004028
Argument of Perigee192.8405
Mean Anonmoly167.2743
Mean Motion15.4592278
Decay Rate0.00174438
L11 41990U 17008AU 23014.15679634 .00174438 00000+0 35123-2 0 9992
L22 41990 97.2502 81.3859 0004028 192.8405 167.2743 15.45922780328643



Live tracking and technical data element details for FLOCK 3P-33 (NORAD 41990). FLOCK 3P-33 can be tracked NOW for your location showing map with azimuth and elevation plus other details from your city location.







IsCatalogInMostPopularTable: catalog: 41990, numindb: 432
Update: records affected: 1



GetName: 41990 FLOCK 3P-33

Hit Count: updated at: Thu, 22 May 2025 04:00:26 GMT